Location: Austin
(30.3000°N, 97.7500°W)
Time: 11:12:12
(UTC-05:00)

Cosmos 1782 - Pass Details

Date: 26 May 2023
Orbit: 524 x 537 km, 82.5° (Epoch: 31 May)

Event Time Altitude Azimuth Distance (km) Brightness Sun altitude
Rises 21:01:40 0° 201° (SSW) 2,672 6.2 -7.9°
Reaches altitude 10° 21:03:55 10° 210° (SSW) 1,784 5.4 -8.3°
Maximum altitude 21:07:35 37° 279° (W) 835 4.4 -9.0°
Drops below altitude 10° 21:11:15 10° 348° (NNW) 1,788 6.1 -9.6°
Sets 21:13:31 0° 356° (N) 2,679 6.9 -10.0°
